When you browse on this site, cookies collect data to enhance your experience and personalize the content and advertising you see.
Visit our Privacy Policy to learn more. By continuing to use the site, you agree to this use of cookies and data.
  • In United Kingdom
  • List of Countries
  • For 7 days
  • Water Temperature
  • Satellite Maps
  • Weather Map
  • Weather Widgets
  • user-avatar
    Login

    Hourly Weather Maseru

    Today, 20 January, Sunday

    Time Temperature Precipitation Wind Pressure Humidity
    00:00 +16°C° 0 mm 1 mps 637 mmHg 38%
    01:00 +15°C° 0 mm 1 mps 637 mmHg 46%
    02:00 +15°C° 0 mm 1 mps 637 mmHg 54%
    03:00 +14°C° 0 mm 1 mps 637 mmHg 60%
    04:00 +14°C° 0 mm 1 mps 638 mmHg 66%
    05:00 +13°C° 0 mm 0 mps 638 mmHg 72%
    06:00 +15°C° 0 mm 0 mps 639 mmHg 65%
    07:00 +19°C° 0 mm 1 mps 640 mmHg 58%
    08:00 +21°C° 0 mm 1 mps 641 mmHg 51%
    09:00 +23°C° 0 mm 1 mps 641 mmHg 43%
    10:00 +25°C° 0 mm 2 mps 641 mmHg 35%
    11:00 +26°C° 0 mm 2 mps 641 mmHg 26%
    12:00 +28°C° 0 mm 2 mps 641 mmHg 23%
    13:00 +29°C° 0 mm 3 mps 641 mmHg 19%
    14:00 +30°C° 0 mm 3 mps 640 mmHg 16%
    15:00 +30°C° 0 mm 3 mps 640 mmHg 15%
    16:00 +31°C° 0 mm 3 mps 640 mmHg 14%
    17:00 +31°C° 0 mm 3 mps 639 mmHg 14%
    18:00 +28°C° 0 mm 2 mps 639 mmHg 17%
    19:00 +25°C° 0 mm 1 mps 638 mmHg 21%
    20:00 +22°C° 0 mm 1 mps 637 mmHg 25%
    21:00 +22°C° 0 mm 1 mps 638 mmHg 26%
    22:00 +21°C° 0 mm 1 mps 638 mmHg 26%
    23:00 +20°C° 0 mm 2 mps 639 mmHg 27%

    Tomorrow, 21 January, Monday

    Time Temperature Precipitation Wind Pressure Humidity
    00:00 +19°C° 0 mm 2 mps 639 mmHg 33%
    01:00 +18°C° 0 mm 2 mps 638 mmHg 38%
    02:00 +17°C° 0 mm 2 mps 638 mmHg 44%
    03:00 +16°C° 0 mm 2 mps 638 mmHg 51%
    04:00 +16°C° 0 mm 2 mps 638 mmHg 59%
    05:00 +15°C° 0 mm 1 mps 638 mmHg 67%
    06:00 +17°C° 0 mm 2 mps 639 mmHg 61%
    07:00 +19°C° 0 mm 3 mps 640 mmHg 54%
    08:00 +21°C° 0 mm 4 mps 640 mmHg 48%
    09:00 +23°C° 0 mm 4 mps 641 mmHg 44%
    10:00 +26°C° 0 mm 4 mps 641 mmHg 41%
    11:00 +28°C° 0 mm 4 mps 641 mmHg 37%
    12:00 +29°C° 0 mm 3 mps 640 mmHg 32%
    13:00 +31°C° 0 mm 3 mps 640 mmHg 27%
    14:00 +33°C° 0 mm 3 mps 640 mmHg 22%
    15:00 +33°C° 0 mm 3 mps 639 mmHg 22%
    16:00 +33°C° 0 mm 4 mps 639 mmHg 22%
    17:00 +33°C° 0 mm 4 mps 638 mmHg 23%
    18:00 +30°C° 0 mm 3 mps 638 mmHg 26%
    19:00 +28°C° 0 mm 2 mps 637 mmHg 29%
    20:00 +26°C° 0 mm 1 mps 637 mmHg 33%
    21:00 +25°C° 0 mm 1 mps 637 mmHg 34%
    22:00 +24°C° 0 mm 1 mps 637 mmHg 35%
    23:00 +24°C° 0 mm 1 mps 637 mmHg 37%

    Day after tomorrow, 22 January, Tuesday

    Time Temperature Precipitation Wind Pressure Humidity
    00:00 +23°C° 0 mm 1 mps 636 mmHg 38%
    01:00 +22°C° 0 mm 1 mps 636 mmHg 39%
    02:00 +22°C° 0 mm 1 mps 635 mmHg 41%
    03:00 +22°C° 0 mm 1 mps 636 mmHg 41%
    04:00 +22°C° 0 mm 1 mps 636 mmHg 40%
    05:00 +22°C° 0 mm 1 mps 636 mmHg 40%
    06:00 +24°C° 0 mm 1 mps 637 mmHg 37%
    07:00 +26°C° 0 mm 2 mps 638 mmHg 35%
    08:00 +27°C° 0 mm 2 mps 639 mmHg 32%
    09:00 +29°C° 0 mm 2 mps 639 mmHg 30%
    10:00 +31°C° 0 mm 3 mps 639 mmHg 27%
    11:00 +34°C° 0 mm 3 mps 639 mmHg 25%
    12:00 +34°C° 0 mm 4 mps 639 mmHg 23%
    13:00 +35°C° 0 mm 4 mps 639 mmHg 21%
    14:00 +36°C° 0 mm 5 mps 638 mmHg 19%
    15:00 +36°C° 0 mm 4 mps 638 mmHg 17%
    16:00 +36°C° 0 mm 4 mps 638 mmHg 15%
    17:00 +36°C° 0 mm 4 mps 637 mmHg 14%
    18:00 +33°C° 0 mm 3 mps 637 mmHg 16%
    19:00 +29°C° 0 mm 3 mps 636 mmHg 17%
    20:00 +26°C° 0 mm 2 mps 635 mmHg 19%
    21:00 +25°C° 0 mm 2 mps 635 mmHg 22%
    22:00 +24°C° 0 mm 2 mps 635 mmHg 24%
    23:00 +23°C° 0 mm 2 mps 635 mmHg 26%

    23 January, Wednesday

    Time Temperature Precipitation Wind Pressure Humidity
    00:00 +21°C° 0 mm 2 mps 635 mmHg 34%
    01:00 +21°C° 0 mm 1 mps 635 mmHg 41%
    02:00 +20°C° 0 mm 1 mps 634 mmHg 49%
    03:00 +20°C° 0 mm 1 mps 634 mmHg 53%
    04:00 +19°C° 0 mm 1 mps 634 mmHg 57%
    05:00 +19°C° 0 mm 1 mps 634 mmHg 61%
    06:00 +21°C° 0 mm 1 mps 635 mmHg 53%
    07:00 +24°C° 0 mm 2 mps 636 mmHg 45%
    08:00 +27°C° 0 mm 2 mps 637 mmHg 37%
    09:00 +29°C° 0 mm 2 mps 637 mmHg 31%
    10:00 +31°C° 0 mm 2 mps 637 mmHg 25%
    11:00 +34°C° 0 mm 2 mps 637 mmHg 19%
    12:00 +35°C° 0 mm 3 mps 637 mmHg 16%
    13:00 +37°C° 0 mm 4 mps 637 mmHg 13%
    14:00 +39°C° 0 mm 5 mps 637 mmHg 10%
    15:00 +39°C° 0 mm 6 mps 636 mmHg 9%
    16:00 +39°C° 0 mm 6 mps 636 mmHg 8%
    17:00 +38°C° 0 mm 7 mps 636 mmHg 7%
    18:00 +34°C° 0 mm 5 mps 635 mmHg 9%
    19:00 +29°C° 0 mm 3 mps 634 mmHg 12%
    20:00 +25°C° 0 mm 1 mps 634 mmHg 15%
    21:00 +24°C° 0 mm 1 mps 634 mmHg 17%
    22:00 +24°C° 0 mm 1 mps 634 mmHg 18%
    23:00 +23°C° 0 mm 1 mps 635 mmHg 20%

    24 January, Thursday

    Time Temperature Precipitation Wind Pressure Humidity
    00:00 +22°C° 0 mm 1 mps 635 mmHg 29%
    01:00 +21°C° 0 mm 1 mps 634 mmHg 39%
    02:00 +19°C° 0 mm 1 mps 634 mmHg 48%
    03:00 +19°C° 0 mm 1 mps 634 mmHg 54%
    04:00 +18°C° 0 mm 1 mps 634 mmHg 61%
    05:00 +16°C° 0 mm 0 mps 634 mmHg 67%
    06:00 +18°C° 0 mm 0 mps 635 mmHg 59%
    07:00 +21°C° 0 mm 0 mps 636 mmHg 52%
    08:00 +23°C° 0 mm 0 mps 637 mmHg 44%
    09:00 +27°C° 0 mm 1 mps 637 mmHg 39%
    10:00 +29°C° 0 mm 2 mps 638 mmHg 33%
    11:00 +31°C° 0 mm 3 mps 638 mmHg 28%
    12:00 +34°C° 0 mm 3 mps 637 mmHg 24%
    13:00 +35°C° 0 mm 4 mps 637 mmHg 21%
    14:00 +36°C° 0 mm 4 mps 637 mmHg 18%
    15:00 +36°C° 0 mm 4 mps 637 mmHg 17%
    16:00 +36°C° 0 mm 4 mps 636 mmHg 17%
    17:00 +35°C° 0 mm 4 mps 636 mmHg 16%
    18:00 +33°C° 0 mm 3 mps 636 mmHg 19%
    19:00 +30°C° 0 mm 2 mps 635 mmHg 22%
    20:00 +28°C° 0 mm 2 mps 635 mmHg 25%
    21:00 +26°C° 0 mm 1 mps 635 mmHg 30%
    22:00 +24°C° 0 mm 1 mps 635 mmHg 36%
    23:00 +22°C° 0 mm 1 mps 636 mmHg 42%

    25 January, Friday

    Time Temperature Precipitation Wind Pressure Humidity
    00:00 +22°C° 0.1 mm 1 mps 635 mmHg 49%
    01:00 +21°C° 0.1 mm 1 mps 635 mmHg 57%
    02:00 +20°C° 0.1 mm 1 mps 635 mmHg 65%
    03:00 +19°C° 0.1 mm 1 mps 635 mmHg 69%
    04:00 +19°C° 0.1 mm 1 mps 635 mmHg 73%
    05:00 +18°C° 0.1 mm 1 mps 635 mmHg 77%
    06:00 +20°C° 0 mm 2 mps 636 mmHg 68%
    07:00 +22°C° 0 mm 3 mps 637 mmHg 60%
    08:00 +25°C° 0 mm 4 mps 638 mmHg 51%
    09:00 +26°C° 0 mm 4 mps 638 mmHg 47%
    10:00 +28°C° 0 mm 5 mps 638 mmHg 42%
    11:00 +30°C° 0 mm 6 mps 637 mmHg 37%
    12:00 +32°C° 0 mm 5 mps 637 mmHg 32%
    13:00 +34°C° 0 mm 5 mps 637 mmHg 27%
    14:00 +35°C° 0 mm 4 mps 636 mmHg 22%
    15:00 +35°C° 0 mm 3 mps 636 mmHg 20%
    16:00 +35°C° 0 mm 2 mps 636 mmHg 19%
    17:00 +34°C° 0 mm 1 mps 635 mmHg 18%
    18:00 +31°C° 0 mm 1 mps 635 mmHg 22%
    19:00 +28°C° 0 mm 1 mps 635 mmHg 26%
    20:00 +26°C° 0 mm 1 mps 634 mmHg 30%
    21:00 +24°C° 0 mm 1 mps 635 mmHg 35%
    22:00 +23°C° 0 mm 1 mps 635 mmHg 39%
    23:00 +22°C° 0 mm 1 mps 635 mmHg 44%
    Show more